Regional Weather Roundup
Issued by NWS

Home | Current Version | Previous Version | Graphics & Text | Print | Product List | Glossary On
Versions: 1 2 3 4 5 6 7 8 9 10 11 12 13 14 15 16 17 18 19 20 21 22 23 24 25 26 27 28 29 30 31 32 33 34 35 36 37 38 39 40 41 42 43 44 45 46 47 48 49 50
000
ASUS43 KMPX 241301
RWRMN
WEATHER ROUNDUP FOR MINNESOTA
NATIONAL WEATHER SERVICE TWIN CITIES/CHANHASSEN MN
800 AM CDT THU JUL 24 2014


NOTE: "FAIR" INDICATES FEW OR NO CLOUDS BELOW 12,000 FEET WITH NO
SIGNIFICANT WEATHER AND/OR OBSTRUCTIONS TO VISIBILITY. N/A MEANS
CURRENT SKY AND/OR WEATHER CONDITIONS ARE NOT AVAILABLE.

MNZ060>063-068>070-241400-
   Twin Cities Metro

CITY           SKY/WX    TMP DP  RH WIND       PRES   REMARKS
TWIN CITIES    MOSUNNY   67  58  72 SE6       30.14F
ST PAUL        SUNNY     66  58  75 SE7       30.15F
CRYSTAL        SUNNY     69  59  70 SE6       30.13S
LAKEVILLE      SUNNY     61  57  88 CALM      30.15S FOG
EDEN PRAIRIE   SUNNY     66  59  78 SE5       30.14R
SOUTH ST PAUL  SUNNY     65  58  80 S3        30.15R
LAKE ELMO      FAIR      64  59  82 CALM      30.16S
$$
MNZ001>005-007-008-013>017-022>024-027-028-241400-
   Northwest Minnesota

CITY           SKY/WX    TMP DP  RH WIND       PRES   REMARKS
BEMIDJI        MOSUNNY   61  58  88 SW3       30.13S
HALLOCK        MOSUNNY   61  55  82 SE6       30.07F
ROSEAU         MOSUNNY   57  54  88 CALM      30.11R
WARROAD        SUNNY     61  55  82 S2        30.10F
THIEF RVR FALL MOSUNNY   61  57  88 SE7       30.09F
CROOKSTON      MOSUNNY   63  59  88 SE7       30.08F
FOSSTON        MOSUNNY   63  57  82 SE3       30.12S
DETROIT LAKES  MOSUNNY   64  59  82 SE8       30.13S
MOORHEAD       MOSUNNY   66  63  88 S7        30.10R
PARK RAPIDS    PTSUNNY   60  56  86 SE5       30.13F
$$
MNZ006-009>011-018-025>026-241400-
   North Central Minnesota

CITY           SKY/WX    TMP DP  RH WIND       PRES   REMARKS
BAUDETTE       SUNNY     58  52  80 SE5       30.13F
FLAG ISLAND    MOSUNNY   64  57  77 SE3       30.10F
INTL FALLS     MOSUNNY   58  53  84 CALM      30.14F
WASKISH        SUNNY     61  55  82 CALM        N/A
LONGVILLE      SUNNY     55  55 100 SE3       30.14R
GRAND RAPIDS   SUNNY     57  52  82 SE5       30.14F
CRANE LAKE     SUNNY     54  54 100 CALM      30.17F
ORR            MOSUNNY   57  52  82 CALM      30.14F
COOK           SUNNY     55  52  88 CALM      30.16F
$$
MNZ012-019>021-037-241400-
   Northeast Minnesota

CITY           SKY/WX    TMP DP  RH WIND       PRES   REMARKS
DULUTH         MOSUNNY   64  54  69 SE5       30.16F
ELY            SUNNY     55  50  82 CALM      30.17F
HIBBING        PTSUNNY   58  52  80 CALM      30.16F
EVELETH        MOSUNNY   57  54  88 CALM      30.17F
DULUTH HARBOR  FOG       55  54  94 CALM      30.17F VSB 1/4
TWO HARBORS    MOSUNNY   61  54  77 CALM      30.15S
SILVER BAY     MOSUNNY   57  55  94 CALM      30.15F
GRAND MARAIS     N/A     52  49  89 CALM      30.15F
G MARAIS ARPRT SUNNY     61  48  63 W3        30.19F
$$
MNZ029>031-032-039>041-046>048-054>057-064-241400-
   West Central Minnesota

CITY           SKY/WX    TMP DP  RH WIND       PRES   REMARKS
FERGUS FALLS   PTSUNNY   66  55  68 S8        30.11S
WHEATON        MOSUNNY   61  57  88 SE8       30.12S
MORRIS         MOSUNNY   63  59  88 SE5       30.12R
ALEXANDRIA     PTSUNNY   65  56  72 SE6       30.15S
ELBOW LAKE     FAIR      64  57  78 SE9       30.12R
WADENA         MOSUNNY   61  55  82 SE3       30.13S
GLENWOOD       MOSUNNY   61  57  88 SE5       30.15R
APPLETON       SUNNY     63  57  82 SE5       30.11F
BENSON         SUNNY     63  55  77 S6        30.13S
ORTONVILLE     MOSUNNY   64  55  72 SE6       30.11S
MADISON        MOSUNNY   64  59  82 S3        30.12S
WILLMAR        FAIR      64  57  77 CALM      30.15S
$$
MNZ033>034-036-042>043-049>051-058-059-241400-
   Central Minnesota

CITY           SKY/WX    TMP DP  RH WIND       PRES   REMARKS
ST CLOUD       SUNNY     65  56  72 CALM      30.14S
SAUK CENTRE    FAIR      62  58  88 CALM      30.14S
PAYNESVILLE    SUNNY     57  55  95 CALM      30.14F
AITKIN         SUNNY     61  54  77 CALM      30.13S
PINE RIVER     PTSUNNY   59  59 100 CALM      30.17S
BRAINERD       SUNNY     60  57  89 CALM      30.15S
STAPLES        SUNNY     61  55  82 CALM      30.13F
LONG PRAIRIE   FAIR      63  59  88 CALM      30.15S
LITTLE FALLS   SUNNY     59  57  94 CALM      30.14S
LITCHFIELD       N/A     64  59  82 CALM      30.15S
BUFFALO        SUNNY     65  58  77 CALM      30.15R
MAPLE LAKE     SUNNY     66  62  85 CALM      30.15S
$$
MNZ037-044-045-052-053-241400-
   East Central Minnesota

CITY           SKY/WX    TMP DP  RH WIND       PRES   REMARKS
PRINCETON      SUNNY     63  61  94 CALM      30.14S
MORA           SUNNY     59  57  94 CALM      30.16S
CAMBRIDGE      SUNNY     66  55  68 SE5       30.13S
RUSH CITY      LGT RAIN  60  57  90 CALM      30.14F
MOOSE LAKE     SUNNY     61  55  82 SE3       30.13F
HINCKLEY       FAIR      63  59  88 E3        30.15F
CLOQUET        SUNNY     59  54  82 E5        30.16F
MCGREGOR       SUNNY     57  55  94 CALM      30.15F
$$
MNZ071>073-080-081-089-090-097-098-241400-
   Southwest Minnesota

CITY           SKY/WX    TMP DP  RH WIND       PRES   REMARKS
MONTEVIDEO     SUNNY     64  57  77 S5        30.14R
GRANITE FALLS  SUNNY     63  56  78 SE3       30.15S
CANBY          MOSUNNY   64  57  79 SE5       30.14S
MARSHALL       MOSUNNY   64  54  68 S6        30.13R
REDWOOD FALLS  SUNNY     63  55  75 SE3       30.14R
OLIVIA         SUNNY     64  55  72 SE3       30.13R HAZE
PIPESTONE      CLOUDY    63  55  77 S3        30.15R
WINDOM         SUNNY     66  57  72 CALM      30.15S
WORTHINGTON    MOSUNNY   64  57  77 SE5       30.16R
JACKSON        SUNNY     68  57  68 SE3       30.15S
TRACY          MOSUNNY   68  55  63 S6        30.15R
SLAYTON        PTSUNNY   63  56  80 CALM      30.16R
$$
MNZ065>067-074>077-082>085-091>093-241400-
   South Central Minnesota

CITY           SKY/WX    TMP DP  RH WIND       PRES   REMARKS
MANKATO        SUNNY     63  54  72 SE8       30.15R
NEW ULM        SUNNY     63  57  82 SE3       30.14
ST JAMES       SUNNY     64  55  72 CALM      30.16R
FAIRMONT       SUNNY     63  57  82 CALM      30.16R
GLENCOE        SUNNY     64  56  75 CALM      30.14R
FARIBAULT      SUNNY     66  55  68 CALM      30.15R
OWATONNA       SUNNY     66  57  72 SE5       30.15S
WASECA         SUNNY     61  54  77 CALM      30.17R
ALBERT LEA     SUNNY     64  61  88 CALM      30.17R
$$
MNZ078>079-086>088-094>096-241400-
   Southeast Minnesota

CITY           SKY/WX    TMP DP  RH WIND       PRES   REMARKS
ROCHESTER      SUNNY     63  57  81 SE6       30.18F
RED WING       SUNNY     66  57  72 CALM      30.14S
STANTON        SUNNY     62  57  83 CALM      30.14S
DODGE CENTER   SUNNY     63  57  82 SE3       30.16S
WINONA         SUNNY     63  61  94 SE3       30.16F
AUSTIN         MOSUNNY   64  57  77 CALM      30.16R
PRESTON        SUNNY     61  60  97 SE5       30.17F
$$
ABBREVIATIONS USED IN REMARKS
   TC - TEMPERATURES IN CELSIUS
  WCI - WIND CHILL INDEX
   HX - HEAT INDEX
  VSB - VISIBILITY
$$


USA.gov is the U.S. government's official web portal to all federal, state and local government web resources and services.